Dewpoint
59 61 61 63 63 63 63 65 67 67 68 70 71 71 70 72 72 73 74 75 76 76 78 79 78 78 77 77 77 77 76 75 76 74 73 73 73 73 73 72 72 73 71 71 71 69 70 70 69 68 68 68 67 67 67 66 65 63 64 65 65 65 65
57 59 60 61 62 63 65 66 67 67 68 69 70 72 70 72 73 73 74 75 76 76 77 78 79 78 78 78 77 77 77 76 76 76 74 74 74 74 73 74 73 73 73 72 71 70 70 69 69 69 67 67 66 67 66 66 65 65 63 64 63 65 66
57 57 60 61 62 63 66 66 68 67 68 67 68 69 70 73 74 74 74 75 76 77 77 78 78 78 78 78 77 77 77 76 76 76 75 73 74 73 74 74 73 72 72 72 71 70 71 70 70 69 67 66 65 66 66 66 66 64 64 64 64 64 65
58 58 59 62 64 65 66 66 67 66 65 66 68 68 71 73 74 74 74 75 76 77 76 77 78 77 77 78 77 77 77 77 77 76 75 74 74 74 73 73 74 73 72 72 71 70 70 70 69 68 67 67 66 66 66 65 65 65 64 64 64 64 64
56 58 58 61 62 64 65 66 66 67 65 65 67 71 71 72 73 73 74 74 73 75 76 76 75 77 77 77 77 77 77 77 76 76 75 74 75 74 73 72 73 72 72 72 72 71 71 69 68 67 67 67 67 66 66 66 64 65 65 64 64 63 62
55 58 59 59 61 63 65 64 64 64 64 63 66 69 69 69 70 70 72 74 74 74 76 76 76 77 77 77 76 77 77 77 77 77 76 76 76 75 73 74 74 73 71 73 72 71 71 69 67 66 66 66 65 65 65 65 64 64 65 65 65 63 61
54 58 58 59 61 62 64 64 63 63 64 64 65 68 68 67 68 68 68 70 71 73 73 74 75 76 77 76 77 77 77 76 77 76 77 76 76 76 75 75 74 73 73 73 71 71 70 69 67 67 67 66 66 65 66 66 65 64 65 65 64 64 64
54 57 60 61 60 60 60 64 64 63 64 65 64 66 66 66 66 66 66 66 69 68 70 70 73 76 77 77 76 77 77 76 75 76 76 76 76 75 75 74 74 74 74 73 72 71 69 69 68 69 68 66 66 67 66 66 66 63 64 63 62 63 63
56 60 60 59 60 59 60 62 64 65 66 67 67 68 67 67 65 65 66 65 66 67 68 66 69 74 77 76 76 76 77 76 76 76 76 75 74 73 72 73 74 74 73 71 70 72 70 70 69 70 70 69 68 69 67 66 65 64 63 62 63 64 63
58 61 63 59 59 58 60 61 64 67 67 68 69 69 68 68 68 66 66 64 64 65 66 66 66 71 76 76 75 76 76 76 75 74 73 72 73 72 71 71 72 73 72 70 69 69 69 69 70 71 71 70 70 70 69 67 65 64 63 63 64 65 64
60 63 63 61 61 61 61 61 64 67 69 70 70 68 69 69 69 67 67 65 64 64 65 66 66 69 73 74 73 74 75 74 73 73 72 71 70 70 70 69 69 70 70 68 68 70 71 71 71 72 71 70 69 69 69 67 65 65 63 63 64 65 64
65 64 65 64 63 62 62 65 67 69 70 71 70 69 71 71 69 68 68 68 66 64 66 66 66 66 72 73 72 74 74 74 72 71 71 71 71 71 68 67 69 68 67 67 67 69 69 70 71 69 68 68 68 69 68 67 66 65 65 63 63 64 64
64 65 66 63 64 64 67 68 69 70 71 71 70 71 70 70 70 68 70 70 67 67 67 69 68 69 70 72 71 74 74 72 72 72 71 72 71 70 68 66 65 65 64 65 68 68 68 70 69 69 69 69 68 67 66 66 66 66 66 66 65 64 64
66 63 65 65 66 66 68 69 71 72 72 72 71 72 71 71 70 70 71 71 70 68 68 68 71 71 72 73 73 74 73 73 74 74 73 72 70 70 69 70 69 70 70 70 68 67 68 68 68 69 69 68 68 67 66 66 66 66 67 67 66 64 64
61 61 63 63 66 68 70 70 72 72 72 72 72 72 72 71 72 72 72 72 72 68 69 71 72 73 72 74 74 75 75 74 74 73 71 70 69 69 69 70 69 68 68 69 68 70 70 67 66 67 67 67 67 67 66 66 65 66 67 68 67 66 65
58 59 59 61 65 67 69 70 72 73 73 73 72 72 71 72 73 72 72 71 71 72 70 72 73 74 74 74 74 75 75 74 74 72 69 68 69 68 68 68 66 66 65 66 67 69 69 69 68 66 67 67 67 67 67 67 67 65 63 65 67 67 67
58 59 59 61 65 66 69 70 71 73 73 73 72 73 72 73 73 72 70 70 70 73 71 71 74 75 75 74 74 74 75 74 73 70 68 68 68 67 66 65 65 65 65 66 67 66 68 68 68 66 65 65 66 67 67 67 66 62 62 62 64 67 67
58 62 61 61 64 66 68 69 70 72 72 72 72 73 74 74 74 73 71 71 71 71 72 73 74 73 74 74 75 75 75 74 71 69 68 68 68 68 68 68 67 66 66 67 67 66 65 65 65 67 66 65 66 66 66 66 63 61 61 62 61 63 67
60 61 63 65 66 67 66 66 69 72 71 72 72 73 73 74 73 74 73 73 73 74 73 72 72 74 75 74 75 75 74 73 71 69 68 68 68 69 69 69 68 67 67 66 67 68 67 66 67 67 67 66 66 65 64 65 62 61 60 61 60 61 63
59 61 64 64 65 65 67 67 68 69 70 72 72 71 72 74 73 74 73 73 74 74 74 75 74 74 74 75 75 74 73 73 71 70 69 68 68 68 68 67 68 67 67 66 66 66 66 66 67 67 68 67 66 65 65 66 62 60 59 59 60 60 62
60 62 64 65 66 65 68 68 68 69 70 69 69 71 72 72 73 73 73 74 73 74 75 75 75 74 74 74 74 74 74 72 71 70 69 68 68 67 67 67 67 67 66 65 65 66 66 66 67 66 67 67 67 67 67 66 61 59 58 58 58 58 61
55 59 61 62 66 67 68 66 68 67 69 69 71 71 70 70 70 69 70 72 73 75 75 75 75 74 74 74 74 73 73 71 71 70 70 69 69 68 68 68 68 67 66 66 65 66 65 66 66 65 66 65 66 66 67 66 60 59 58 57 57 59 63
51 56 58 61 62 64 69 67 67 68 70 69 68 67 66 67 66 67 68 70 72 75 75 74 74 73 74 73 72 72 72 71 71 70 70 69 69 68 68 67 67 68 68 68 66 64 65 66 64 66 65 65 66 66 66 66 62 58 57 57 57 59 65
55 59 58 59 64 67 68 67 67 67 64 66 66 66 65 64 67 69 70 71 73 74 74 74 73 72 72 71 71 71 71 71 71 70 70 70 69 69 68 67 68 68 69 68 66 64 63 64 64 66 66 65 65 64 65 64 62 57 56 56 56 61 66
54 56 61 63 65 64 64 65 66 66 67 68 64 66 68 69 70 71 72 73 74 74 74 74 73 72 72 71 70 71 70 70 71 71 69 69 69 69 68 68 68 68 68 67 66 65 66 65 65 65 65 63 64 63 63 63 61 56 55 54 55 62 67
58 59 61 63 62 64 68 70 69 67 67 67 70 71 71 72 73 73 73 74 73 73 73 73 73 73 72 71 71 70 70 70 70 69 69 69 69 69 68 67 67 67 66 66 65 65 65 65 65 64 63 63 63 63 62 62 65 64 54 53 53 56 66
62 62 62 62 65 69 70 69 68 65 65 71 73 72 74 74 73 74 74 74 73 72 71 72 73 73 72 71 70 70 70 70 70 69 69 68 68 67 67 65 64 63 64 61 60 62 62 62 61 62 62 61 60 59 61 59 59 67 54 52 53 54 57
63 64 66 68 69 66 64 61 64 64 68 73 72 73 73 74 74 74 73 72 71 71 71 73 73 73 73 72 71 70 69 70 70 70 70 70 69 69 65 63 64 64 63 60 61 62 62 62 62 60 60 60 59 61 60 62 66 67 55 52 51 52 54
64 64 65 67 67 64 60 63 65 67 70 69 69 69 71 71 73 73 72 71 72 71 73 72 72 73 72 72 71 71 69 69 70 70 69 68 67 66 63 63 63 63 62 61 60 61 61 62 61 60 59 59 60 60 61 68 66 62 62 52 51 50 51
62 61 56 53 54 59 64 71 71 70 68 66 68 69 69 71 73 72 72 73 73 72 72 72 73 73 72 71 71 69 69 69 69 68 67 67 67 65 64 63 62 62 61 61 61 61 61 59 59 59 58 58 58 62 66 68 67 60 61 59 52 50 49
54 54 53 53 50 57 58 68 71 70 71 72 72 72 72 73 73 74 74 73 72 72 72 73 73 72 71 70 70 70 69 69 68 67 66 65 64 64 63 62 62 62 63 62 62 61 61 60 59 59 58 57 58 62 65 65 66 64 61 57 51 50 49
58 57 56 61 64 58 58 61 65 67 68 70 72 72 73 73 73 73 72 72 71 73 73 72 72 71 70 70 70 69 68 68 67 66 65 64 64 65 64 63 62 61 63 61 60 61 60 60 58 58 59 58 60 62 64 64 64 64 64 57 54 52 51
67 67 65 65 68 67 61 60 60 62 63 66 66 65 66 71 73 74 73 72 72 73 72 72 71 70 70 70 70 69 68 67 64 63 63 64 64 63 63 63 62 63 63 62 60 61 60 60 60 60 59 60 60 62 63 63 63 63 62 61 58 58 55
66 66 68 68 68 69 67 64 61 63 66 68 67 67 65 66 69 71 71 70 70 70 71 71 70 69 70 69 68 67 66 65 65 64 62 62 61 61 61 63 63 61 62 61 61 60 60 60 59 59 58 58 58 61 62 61 62 62 62 60 59 59 59
68 68 68 67 68 69 68 67 65 66 67 69 70 70 70 71 70 69 70 69 67 70 69 68 68 68 68 66 66 66 66 64 63 62 62 62 63 64 64 66 64 63 62 65 65 64 60 59 57 58 57 56 59 61 61 61 61 62 58 68 57 65 56
66 66 67 68 68 68 69 69 69 69 69 71 71 71 70 69 68 66 64 65 67 68 69 69 67 67 65 64 63 63 63 63 61 62 62 61 62 62 57 48 42 50 60 59 53 47 42 47 60 57 57 54 55 61 56 54 61 48 45 44 43 42 42
65 65 65 66 67 68 68 69 69 70 70 71 71 70 68 68 66 66 65 68 68 68 70 68 67 65 62 63 61 62 63 61 61 62 64 62 62 61 57 54 53 39 40 46 47 44 39 39 40 43 47 59 60 53 45 46 45 43 43 42 41 41 40
60 64 64 63 64 67 68 69 69 69 70 70 70 69 69 66 67 68 66 68 68 69 70 68 67 64 62 62 62 65 66 62 62 63 63 63 63 63 60 59 59 56 42 39 41 41 39 39 39 40 44 45 53 55 56 46 42 41 41 41 40 40 39